Weather History for Edinburg, TX

Change the Weather History Date:

Thursday, February 21, 2013

  Actual Average (KMFE) Record (KMFE)
Temperature  
Mean Temperature 82 °F 66 °F  
Max Temperature 91 °F 76 °F 96 °F (1962)
Min Temperature 72 °F 55 °F 34 °F (1879)
Degree Days  
Heating Degree Days 0 3  
Month to date heating degree days 88  
Since 1 July heating degree days 515  
Cooling Degree Days 16 4  
Month to date cooling degree days 66  
Year to date cooling degree days 128  
Growing Degree Days 32 (Base 50)    
Moisture  
Dew Point 60 °F    
Average Humidity 55    
Maximum Humidity 82    
Minimum Humidity 31    
Precipitation  
Precipitation 0.00 in 0.04 in 0.89 in (1958)
Month to date precipitation 0.88  
Year to date precipitation 1.93  
Sea Level Pressure  
Sea Level Pressure 29.68 in    
Wind  
Wind Speed 15 mph (ESE)    
Max Wind Speed 22 mph    
Max Gust Speed 33 mph    
Visibility 6 miles    
Events      
T = Trace of Precipitation, MM = Missing Value Source: NWS Daily Summary

Daily Weather History Graph

Daily Weather History Graph

Search for Another Location

Airport:

Trip Planner

Search our weather history database for the weather conditions in past years. The results will help you decide how hot, cold, wet, or windy it might be!

Date:

Astronomy

Feb. 21, 2013 Rise Set
Actual Time 7:03 AM CST 6:29 PM CST
Civil Twilight 6:39 AM CST 6:52 PM CST
Nautical Twilight 6:12 AM CST 7:19 PM CST
Astronomical Twilight 5:45 AM CST 7:46 PM CST
Moon 2:59 PM CST (2/21) 3:54 AM CST (2/21)
Length of Visible Light 12h 12m
Length of Day
11h 26m
Waxing Gibbous, 84% of the Moon is Illuminated
Feb 21
Waxing Gibbous
Feb 25
Full
Mar 4
Last Quarter
Mar 11
New
Mar 19
First Quarter

Hourly Weather History & Observations

Time (CST) Temp. Heat Index Dew Point Humidity Pressure Visibility Wind Dir Wind Speed Gust Speed Precip Events Conditions
12:15 AM 75.2 °F - 66.2 °F 73% 29.65 in 5.0 mi SSE 20.7 mph 32.2 mph N/A   Haze
12:35 AM 75.2 °F - 66.2 °F 73% 29.65 in 7.0 mi SSE 20.7 mph 33.4 mph N/A   Overcast
12:55 AM 74.8 °F - 66.2 °F 74% 29.65 in 5.0 mi SSE 21.9 mph 27.6 mph N/A   Haze
1:15 AM 74.8 °F - 66.4 °F 75% 29.64 in 7.0 mi SSE 18.4 mph 28.8 mph N/A   Overcast
1:35 AM 74.8 °F - 66.4 °F 75% 29.64 in 5.0 mi SSE 18.4 mph 27.6 mph N/A   Haze
1:55 AM 74.8 °F - 66.4 °F 75% 29.64 in 7.0 mi SSE 18.4 mph 24.2 mph N/A   Overcast
2:15 AM 75.2 °F - 66.6 °F 74% 29.64 in 5.0 mi South 16.1 mph 23.0 mph N/A   Haze
2:35 AM 74.8 °F - 66.6 °F 75% 29.63 in 7.0 mi South 15.0 mph 21.9 mph N/A   Overcast
2:55 AM 74.8 °F - 66.7 °F 76% 29.63 in 7.0 mi South 15.0 mph 19.6 mph N/A   Overcast
3:15 AM 74.7 °F - 66.6 °F 76% 29.63 in 5.0 mi South 13.8 mph 25.3 mph N/A   Haze
3:35 AM 74.7 °F - 66.6 °F 76% 29.61 in 5.0 mi South 13.8 mph 24.2 mph N/A   Haze
3:55 AM 74.3 °F - 66.6 °F 77% 29.61 in 5.0 mi South 13.8 mph 20.7 mph N/A   Haze
4:15 AM 73.9 °F - 66.2 °F 77% 29.60 in 5.0 mi South 12.7 mph 21.9 mph N/A   Haze
4:35 AM 73.6 °F - 66.2 °F 78% 29.60 in 5.0 mi South 12.7 mph 20.7 mph N/A   Haze
4:55 AM 73.6 °F - 66.2 °F 78% 29.60 in 7.0 mi South 11.5 mph 20.7 mph N/A   Clear
5:15 AM 73.2 °F - 66.2 °F 79% 29.61 in 7.0 mi South 11.5 mph - N/A   Clear
5:55 AM 72.5 °F - 66.2 °F 81% 29.61 in 5.0 mi South 12.7 mph - N/A   Haze
6:15 AM 72.3 °F - 66.2 °F 81% 29.61 in 5.0 mi South 6.9 mph - N/A   Haze
6:35 AM 72.3 °F - 66.2 °F 81% 29.63 in 5.0 mi South 8.1 mph - N/A   Haze
6:55 AM 72.1 °F - 66.2 °F 82% 29.63 in 5.0 mi SSE 12.7 mph 18.4 mph N/A   Haze
7:15 AM 72.3 °F - 66.2 °F 81% 29.63 in 4.0 mi SSE 15.0 mph - N/A   Haze
7:35 AM 72.7 °F - 66.4 °F 81% 29.64 in 5.0 mi South 13.8 mph 21.9 mph N/A   Haze
7:55 AM 72.9 °F - 66.4 °F 80% 29.65 in 4.0 mi South 12.7 mph - N/A   Haze
8:15 AM 73.0 °F - 66.4 °F 80% 29.66 in 4.0 mi South 13.8 mph 20.7 mph N/A   Haze
8:35 AM 73.6 °F - 66.2 °F 78% 29.67 in 4.0 mi South 16.1 mph 23.0 mph N/A   Haze
8:55 AM 74.5 °F - 66.2 °F 75% 29.67 in 4.0 mi South 15.0 mph 21.9 mph N/A   Haze
9:15 AM 75.6 °F - 66.2 °F 73% 29.67 in 5.0 mi South 20.7 mph 26.5 mph N/A   Haze
9:35 AM 77.5 °F - 65.5 °F 66% 29.67 in 5.0 mi South 18.4 mph 28.8 mph N/A   Haze
9:55 AM 78.3 °F - 65.3 °F 64% 29.68 in 5.0 mi South 18.4 mph 27.6 mph N/A   Haze
10:15 AM 79.9 °F - 64.9 °F 60% 29.68 in 5.0 mi South 18.4 mph 29.9 mph N/A   Haze
10:35 AM 81.9 °F 83.5 °F 64.6 °F 56% 29.69 in 7.0 mi South 19.6 mph 28.8 mph N/A   Clear
11:15 AM 84.9 °F 86.1 °F 63.7 °F 49% 29.68 in 5.0 mi South 17.3 mph 24.2 mph N/A   Haze
11:55 AM 86.9 °F 87.8 °F 63.1 °F 45% 29.68 in 5.0 mi South 12.7 mph 17.3 mph N/A   Haze
12:15 PM 88.9 °F 89.4 °F 62.6 °F 41% 29.66 in 5.0 mi SSE 11.5 mph 17.3 mph N/A   Haze
12:35 PM 89.8 °F 89.1 °F 59.9 °F 36% 29.67 in 7.0 mi SW 10.4 mph - N/A   Clear
12:55 PM 89.8 °F 89.7 °F 61.3 °F 38% 29.67 in 7.0 mi WSW 6.9 mph 10.4 mph N/A   Clear
1:15 PM 90.0 °F 89.1 °F 58.8 °F 35% 29.67 in 7.0 mi WSW 5.8 mph - N/A   Clear
1:35 PM 89.6 °F 88.1 °F 57.2 °F 33% 29.66 in 7.0 mi NW 9.2 mph - N/A   Clear
1:55 PM 88.9 °F 87.7 °F 58.1 °F 35% 29.65 in 7.0 mi Calm Calm - N/A   Clear
2:15 PM 90.0 °F 88.6 °F 57.6 °F 33% 29.64 in 5.0 mi Calm Calm - N/A   Haze
2:35 PM 91.8 °F 90.3 °F 57.4 °F 31% 29.63 in 7.0 mi NNE 4.6 mph - N/A   Clear
2:55 PM 90.3 °F 89.3 °F 58.5 °F 34% 29.63 in 5.0 mi North 15.0 mph - N/A   Haze
3:15 PM 89.8 °F 88.9 °F 58.6 °F 35% 29.63 in 7.0 mi North 11.5 mph 16.1 mph N/A   Clear
3:35 PM 90.3 °F 89.0 °F 57.4 °F 33% 29.63 in 7.0 mi North 9.2 mph - N/A   Clear
3:55 PM 90.1 °F 88.3 °F 55.9 °F 31% 29.63 in 5.0 mi NNW 12.7 mph 16.1 mph N/A   Haze
4:15 PM 90.3 °F 89.0 °F 57.2 °F 33% 29.64 in 7.0 mi North 13.8 mph 18.4 mph N/A   Clear
4:35 PM 90.0 °F 88.1 °F 55.9 °F 31% 29.64 in 7.0 mi North 13.8 mph - N/A   Clear
4:55 PM 88.0 °F 86.3 °F 55.8 °F 33% 29.65 in 7.0 mi North 16.1 mph 23.0 mph N/A   Clear
5:15 PM 86.2 °F 84.7 °F 55.2 °F 35% 29.66 in 5.0 mi North 18.4 mph 21.9 mph N/A   Haze
5:35 PM 85.5 °F 84.0 °F 54.7 °F 35% 29.67 in 7.0 mi North 15.0 mph - N/A   Clear
5:55 PM 84.4 °F 83.2 °F 55.4 °F 37% 29.67 in 7.0 mi NNE 11.5 mph - N/A   Clear
6:15 PM 83.8 °F 83.0 °F 56.3 °F 39% 29.69 in 7.0 mi NNE 11.5 mph - N/A   Clear
6:35 PM 82.9 °F 82.6 °F 57.6 °F 42% 29.69 in 7.0 mi NNE 15.0 mph 19.6 mph N/A   Clear
6:55 PM 82.4 °F 82.3 °F 58.5 °F 44% 29.71 in 7.0 mi NNE 12.7 mph - N/A   Clear
7:15 PM 81.5 °F 81.7 °F 59.0 °F 46% 29.73 in 7.0 mi NNE 11.5 mph - N/A   Clear
7:35 PM 79.5 °F - 54.3 °F 42% 29.74 in 7.0 mi NNE 16.1 mph - N/A   Clear
7:55 PM 78.8 °F - 54.9 °F 44% 29.74 in 7.0 mi NNE 19.6 mph 24.2 mph N/A   Clear
8:15 PM 77.9 °F - 53.8 °F 43% 29.75 in 7.0 mi NNE 17.3 mph - N/A   Scattered Clouds
8:35 PM 77.0 °F - 52.9 °F 43% 29.77 in 7.0 mi NNE 13.8 mph 23.0 mph N/A   Mostly Cloudy
8:55 PM 76.3 °F - 52.3 °F 43% 29.78 in 7.0 mi NNE 15.0 mph - N/A   Scattered Clouds
9:15 PM 75.6 °F - 52.2 °F 44% 29.79 in 5.0 mi NNE 10.4 mph - N/A   Haze
9:35 PM 75.2 °F - 51.4 °F 43% 29.80 in 7.0 mi NNE 9.2 mph - N/A   Clear
9:55 PM 74.7 °F - 51.8 °F 45% 29.80 in 7.0 mi NNE 11.5 mph - N/A   Clear
10:15 PM 73.9 °F - 51.4 °F 45% 29.80 in 7.0 mi NE 10.4 mph - N/A   Clear
10:35 PM 73.6 °F - 50.7 °F 45% 29.80 in 7.0 mi NNE 10.4 mph - N/A   Clear
10:55 PM 73.4 °F - 49.5 °F 43% 29.80 in 7.0 mi NE 10.4 mph - N/A   Clear
11:15 PM 72.7 °F - 49.1 °F 43% 29.80 in 7.0 mi NE 8.1 mph - N/A   Clear
11:35 PM 72.5 °F - 49.1 °F 44% 29.80 in 7.0 mi NE 9.2 mph - N/A   Scattered Clouds
11:55 PM 72.0 °F - 49.5 °F 45% 29.81 in 7.0 mi NE 5.8 mph - N/A   Clear